Temp
90 93 79 79 79 79 79 79 78 78 78 78 78 77 77 77 77 77 77 76 77 78 77 78 78 79 79 79 79 79 79 80 81 81 82 81 80 80 79 79 80 89 79
94 94 78 79 79 79 79 79 78 78 78 78 78 77 77 77 77 76 76 77 77 77 78 78 78 79 79 79 79 79 79 79 79 80 81 80 80 80 79 80 82 85 79
92 93 88 78 79 79 78 78 78 78 77 78 78 77 77 76 76 76 76 76 77 77 78 78 79 79 79 79 79 79 79 79 78 79 80 81 85 79 79 80 80 79 78
92 90 91 79 78 79 78 78 77 77 77 77 77 77 77 77 76 76 76 76 76 77 77 78 78 79 79 79 79 78 78 78 77 78 83 85 79 78 79 79 80 79 78
92 92 90 80 78 78 78 77 77 77 77 77 77 77 77 77 76 76 76 75 76 77 77 78 78 79 79 79 79 78 78 77 77 76 81 75 74 77 77 78 79 79 79
93 92 87 76 77 78 78 78 77 77 77 77 77 77 77 76 76 76 76 75 75 76 76 77 78 78 79 78 78 78 77 77 76 79 74 74 75 77 76 77 78 78 78
92 91 91 76 76 77 77 78 77 77 77 77 76 77 77 76 76 75 75 75 75 75 76 76 77 77 77 78 78 78 77 76 80 80 74 73 72 73 75 76 78 78 77
89 87 87 79 75 74 75 75 74 74 74 74 73 73 74 75 76 76 74 75 75 75 75 75 76 77 75 77 77 77 76 76 79 79 72 73 72 74 76 76 77 76 77
87 87 86 85 83 74 73 72 72 72 72 71 71 72 72 73 74 75 74 74 75 75 74 75 75 75 75 76 77 76 75 76 80 80 73 72 74 76 78 78 77 77 77
87 88 85 84 86 82 82 75 71 70 70 69 70 70 70 71 71 74 73 73 75 73 74 75 75 75 75 74 75 76 75 76 80 81 71 70 73 76 76 76 77 77 77
87 86 85 85 83 80 81 79 72 72 70 69 69 69 70 75 77 77 74 74 74 74 74 75 75 74 75 74 75 74 76 76 79 82 76 72 72 76 77 77 76 76 77
83 85 85 80 79 78 80 78 77 75 71 69 69 68 70 72 74 76 74 72 72 73 74 74 74 74 75 80 82 77 85 77 80 79 81 74 74 76 75 75 74 76 76
82 84 84 78 77 76 79 78 78 72 72 71 70 71 69 71 72 73 78 77 76 74 77 77 79 80 81 78 84 85 87 81 79 77 78 75 74 73 75 75 75 76 76
81 81 80 79 76 75 76 78 74 70 72 71 74 70 71 73 72 69 70 76 75 76 75 75 81 79 77 78 84 85 85 81 78 76 77 74 74 74 74 74 74 78 75
80 79 79 77 75 74 73 76 73 72 75 75 73 72 74 73 67 71 71 73 76 77 75 74 77 78 76 77 82 83 83 79 78 75 78 74 73 72 75 76 76 77 77
78 78 78 77 75 75 74 73 72 73 74 76 73 73 72 70 67 69 73 69 69 75 75 76 78 77 77 78 81 82 81 78 76 75 79 76 72 72 73 74 76 77 76
80 77 77 76 76 75 74 75 74 75 73 75 75 74 74 72 70 69 71 72 76 74 75 77 75 77 77 79 79 81 81 78 76 75 76 78 71 72 72 74 76 77 77
78 76 77 78 77 76 75 75 76 74 73 69 70 74 74 73 72 70 69 70 71 73 74 76 79 78 79 79 79 82 77 75 76 74 76 76 72 70 72 74 76 76 77
77 76 76 77 77 76 76 76 75 74 74 72 68 67 72 73 74 71 70 72 72 73 72 74 78 78 78 78 79 81 73 73 74 73 70 73 72 70 70 73 75 75 76
77 76 76 77 76 75 78 78 74 71 71 69 65 63 69 71 73 73 71 72 72 73 72 73 74 79 80 78 76 75 71 72 72 71 73 71 73 72 69 70 72 75 75
76 76 76 75 76 75 78 77 74 70 69 69 66 64 63 70 72 71 73 73 74 73 73 73 74 74 74 76 72 65 68 71 71 73 72 71 72 68 68 70 70 73 72
76 75 76 76 76 75 78 76 74 74 75 68 63 64 65 67 72 70 71 72 73 75 72 73 74 73 73 74 65 63 59 61 67 68 70 68 68 67 67 69 70 69 68
76 76 77 76 76 76 75 78 72 72 75 69 65 67 65 66 70 71 72 74 74 76 75 72 74 74 73 69 69 63 59 57 60 66 65 65 66 65 67 68 69 70 69
78 79 77 77 76 77 76 76 72 69 70 72 68 67 66 69 65 70 72 73 74 77 72 71 73 74 74 67 67 65 71 68 58 56 62 64 65 65 66 67 67 67 68
79 79 79 78 77 76 76 75 77 73 70 71 72 68 71 69 70 70 69 70 70 69 70 72 72 74 75 65 65 65 69 63 63 60 57 58 60 63 66 66 67 67 69
80 79 78 77 77 77 78 76 73 69 69 66 66 68 70 68 69 69 68 67 71 72 72 73 73 73 71 72 69 69 64 63 61 61 59 59 58 58 63 65 66 67 71
MSLP
1013.38 1013.58 1014.84 1015.27 1015.47 1015.68 1015.84 1016.04 1016.13 1016.12 1016.21 1016.32 1016.43 1016.48 1016.44 1016.48 1016.45 1016.55 1016.60 1016.45 1016.36 1016.24 1016.13 1016.18 1016.25 1016.05 1016.05 1015.95 1015.77 1015.53 1015.41 1015.39 1015.68 1015.83 1015.86 1015.92 1016.27 1016.39 1016.57 1016.48 1016.63 1016.52 1017.44
1013.02 1013.45 1014.65 1015.09 1015.32 1015.58 1015.74 1015.83 1015.86 1015.84 1016.02 1016.19 1016.32 1016.41 1016.41 1016.44 1016.34 1016.45 1016.45 1016.35 1016.20 1016.06 1015.95 1015.98 1016.03 1015.89 1015.83 1015.83 1015.67 1015.45 1015.29 1015.34 1015.59 1015.74 1015.87 1016.01 1016.26 1016.47 1016.75 1016.67 1016.36 1016.99 1017.53
1013.15 1013.54 1014.45 1015.11 1015.33 1015.46 1015.59 1015.66 1015.58 1015.61 1015.83 1015.95 1016.07 1016.15 1016.22 1016.25 1016.18 1016.10 1016.16 1016.12 1016.02 1015.96 1015.89 1015.80 1015.72 1015.78 1015.68 1015.63 1015.60 1015.40 1015.31 1015.32 1015.50 1015.68 1015.79 1015.77 1015.90 1016.48 1016.81 1016.95 1016.81 1017.45 1017.64
1013.18 1013.76 1013.95 1014.65 1015.08 1015.20 1015.25 1015.42 1015.50 1015.61 1015.65 1015.73 1015.79 1015.88 1015.92 1015.99 1016.01 1015.92 1015.91 1015.94 1015.86 1015.85 1015.72 1015.68 1015.53 1015.58 1015.53 1015.44 1015.54 1015.35 1015.31 1015.39 1015.52 1015.76 1015.74 1015.69 1016.01 1016.48 1016.94 1017.05 1017.17 1017.54 1017.88
1013.17 1013.45 1013.90 1014.54 1014.86 1014.94 1015.11 1015.27 1015.42 1015.44 1015.52 1015.54 1015.55 1015.57 1015.53 1015.50 1015.53 1015.56 1015.62 1015.68 1015.66 1015.58 1015.51 1015.49 1015.33 1015.31 1015.28 1015.29 1015.36 1015.35 1015.23 1015.41 1015.47 1015.98 1015.80 1015.89 1016.35 1016.74 1017.28 1017.55 1017.51 1017.64 1018.02
1012.80 1013.25 1013.81 1014.64 1014.87 1014.90 1015.00 1015.00 1015.02 1015.10 1015.16 1015.18 1015.22 1015.16 1015.09 1015.03 1015.10 1015.13 1015.21 1015.33 1015.39 1015.37 1015.39 1015.34 1015.17 1015.14 1015.05 1015.16 1015.20 1015.28 1015.22 1015.33 1015.55 1015.55 1015.83 1016.10 1016.47 1016.81 1017.46 1018.21 1017.86 1017.96 1018.04
1012.75 1013.20 1013.50 1014.46 1014.71 1014.69 1014.69 1014.71 1014.75 1014.82 1014.83 1014.87 1014.82 1014.69 1014.58 1014.46 1014.55 1014.68 1014.73 1014.90 1015.06 1015.19 1015.28 1015.26 1015.05 1015.03 1015.03 1014.93 1015.09 1015.15 1015.17 1015.31 1015.18 1015.32 1015.83 1016.35 1016.65 1017.14 1017.75 1018.20 1018.18 1018.19 1018.49
1013.03 1013.51 1013.70 1014.15 1014.50 1014.62 1014.64 1014.73 1014.81 1014.81 1014.77 1014.75 1014.69 1014.52 1014.33 1014.09 1013.93 1013.95 1014.31 1014.39 1014.63 1014.87 1015.03 1015.09 1015.00 1014.87 1014.92 1014.94 1015.08 1015.08 1015.17 1015.20 1015.16 1015.40 1015.82 1016.25 1016.88 1017.35 1017.73 1017.95 1018.11 1018.45 1018.77
1013.29 1013.49 1013.77 1013.85 1013.98 1014.55 1014.66 1014.87 1014.84 1014.78 1014.80 1014.71 1014.51 1014.27 1014.05 1013.83 1013.56 1013.49 1013.70 1013.93 1014.14 1014.47 1014.70 1014.86 1014.80 1014.75 1014.78 1014.87 1015.03 1015.14 1015.18 1015.18 1014.96 1015.16 1016.16 1016.19 1016.92 1017.05 1017.41 1017.79 1018.25 1018.50 1018.99
1013.17 1013.19 1013.50 1013.68 1013.71 1013.94 1013.92 1014.37 1014.68 1014.60 1014.55 1014.42 1014.21 1014.00 1013.87 1013.55 1013.30 1012.98 1013.24 1013.59 1013.72 1014.16 1014.38 1014.53 1014.60 1014.57 1014.54 1014.74 1014.90 1015.04 1015.04 1015.20 1014.88 1015.17 1016.13 1016.71 1017.12 1017.23 1017.51 1017.73 1018.18 1018.41 1018.99
1012.75 1013.02 1013.33 1013.52 1013.60 1013.99 1013.92 1013.91 1014.34 1014.19 1014.25 1014.12 1013.92 1013.77 1013.67 1012.96 1012.24 1012.30 1012.63 1013.06 1013.43 1013.82 1013.96 1014.12 1014.31 1014.36 1014.40 1014.54 1014.68 1014.79 1014.96 1014.94 1014.76 1014.82 1015.98 1016.27 1016.84 1016.69 1017.35 1017.69 1018.36 1018.53 1019.06
1012.40 1012.71 1013.10 1013.73 1013.95 1013.98 1013.75 1013.81 1013.82 1013.76 1013.99 1014.13 1013.85 1013.64 1013.37 1012.79 1012.50 1012.27 1012.45 1012.88 1013.25 1013.40 1013.64 1013.80 1013.94 1014.06 1014.16 1013.80 1014.12 1014.69 1014.02 1014.60 1014.63 1014.69 1015.43 1016.59 1016.26 1017.04 1017.59 1018.14 1018.75 1018.97 1019.24
1012.49 1012.72 1012.90 1013.69 1013.89 1013.91 1013.48 1013.47 1013.19 1013.66 1013.49 1013.45 1013.36 1013.14 1013.05 1012.79 1012.34 1012.35 1011.73 1012.09 1012.50 1012.98 1012.97 1013.23 1013.09 1013.30 1013.10 1013.63 1012.84 1013.31 1013.09 1014.16 1014.40 1014.84 1015.17 1016.10 1016.63 1016.62 1017.80 1018.33 1018.98 1019.23 1019.42
1012.41 1012.68 1013.06 1013.35 1013.69 1013.79 1013.68 1013.12 1013.13 1013.34 1013.00 1012.93 1012.53 1012.79 1012.46 1011.97 1011.78 1012.16 1012.07 1011.34 1011.59 1012.23 1012.59 1012.79 1012.08 1012.59 1013.10 1013.42 1012.54 1012.57 1013.07 1013.83 1014.30 1014.76 1015.25 1015.83 1016.54 1016.91 1017.98 1018.48 1018.90 1019.12 1019.52
1012.40 1012.68 1013.03 1013.35 1013.50 1013.69 1013.59 1012.91 1012.98 1012.90 1012.40 1012.30 1012.50 1012.46 1012.08 1011.84 1012.15 1011.85 1011.58 1011.42 1011.16 1011.59 1012.20 1012.52 1012.36 1012.44 1012.93 1013.29 1012.80 1012.85 1013.15 1013.90 1014.35 1014.66 1015.00 1015.91 1016.37 1017.19 1017.76 1018.35 1018.84 1018.94 1019.35
1012.50 1012.74 1013.08 1013.18 1013.33 1013.29 1013.06 1012.93 1012.83 1012.41 1012.28 1011.87 1012.26 1012.05 1011.90 1012.01 1012.08 1011.90 1011.37 1011.64 1011.56 1011.33 1011.54 1011.94 1012.00 1012.25 1012.53 1012.90 1012.80 1012.93 1013.23 1013.86 1014.40 1014.69 1014.87 1016.10 1016.44 1016.88 1017.81 1018.31 1018.49 1018.97 1019.47
1012.30 1012.83 1012.90 1013.03 1013.04 1012.95 1012.71 1012.42 1012.21 1011.94 1012.11 1011.61 1011.43 1011.49 1011.45 1011.47 1011.55 1011.78 1011.41 1011.32 1010.77 1011.18 1011.58 1011.77 1012.16 1012.20 1012.50 1012.69 1012.73 1012.98 1013.21 1013.76 1014.33 1014.77 1015.19 1015.89 1016.86 1017.34 1017.93 1018.40 1018.61 1019.03 1019.41
1012.23 1012.56 1012.72 1012.72 1012.59 1012.48 1012.32 1012.02 1011.71 1011.56 1011.66 1011.83 1011.77 1011.28 1010.94 1011.09 1011.13 1011.22 1011.36 1011.30 1011.33 1011.46 1011.51 1011.53 1011.43 1011.73 1011.89 1012.44 1012.61 1012.58 1013.58 1014.05 1014.23 1014.75 1015.16 1015.91 1017.09 1017.69 1018.39 1018.57 1018.66 1018.78 1019.39
1012.04 1012.39 1012.41 1012.50 1012.35 1012.21 1011.97 1011.68 1011.39 1011.32 1011.23 1011.25 1011.52 1011.42 1010.93 1010.74 1010.62 1010.74 1010.93 1010.88 1011.06 1011.25 1011.46 1011.43 1011.04 1011.28 1011.72 1012.38 1012.49 1012.58 1013.90 1014.36 1014.62 1014.98 1015.71 1016.16 1017.05 1017.77 1018.18 1018.66 1018.70 1018.98 1019.47
1011.86 1012.21 1012.30 1012.23 1012.19 1012.17 1011.49 1011.18 1011.31 1011.25 1011.28 1011.40 1011.70 1011.62 1011.27 1010.77 1010.49 1010.35 1010.68 1010.72 1010.87 1011.03 1011.37 1011.57 1011.38 1011.17 1011.36 1012.10 1012.98 1013.29 1014.11 1014.55 1015.03 1015.62 1016.18 1016.66 1017.10 1017.94 1018.58 1019.30 1019.00 1019.37 1019.72
1011.68 1011.87 1011.92 1011.99 1011.98 1011.99 1011.12 1010.69 1010.75 1010.88 1011.27 1011.40 1011.48 1011.38 1011.20 1010.49 1010.23 1010.37 1010.34 1010.82 1010.97 1010.97 1011.16 1011.44 1011.58 1011.65 1012.00 1012.41 1013.08 1014.02 1014.51 1014.94 1015.43 1015.95 1016.51 1017.00 1017.75 1018.42 1019.14 1019.49 1019.05 1019.52 1019.76
1011.38 1011.60 1011.68 1011.68 1011.75 1011.79 1011.17 1011.16 1011.22 1011.00 1011.14 1011.48 1011.43 1011.29 1010.83 1010.62 1010.13 1010.37 1010.47 1010.65 1010.82 1011.04 1011.42 1011.48 1011.56 1011.69 1012.03 1012.61 1013.41 1013.99 1014.79 1015.90 1016.25 1016.69 1017.28 1017.81 1018.75 1019.04 1019.50 1019.86 1020.15 1020.52 1021.16
1011.08 1011.34 1011.40 1011.53 1011.52 1011.71 1011.47 1010.98 1011.46 1011.37 1011.15 1011.28 1011.46 1011.08 1010.83 1010.62 1010.47 1010.31 1010.43 1010.37 1010.74 1010.72 1011.02 1011.40 1011.39 1011.53 1011.90 1013.13 1013.64 1013.95 1014.58 1014.93 1016.30 1017.30 1018.01 1018.64 1019.24 1019.64 1019.86 1019.92 1020.16 1020.77 1021.37
1010.68 1011.13 1011.24 1011.39 1011.40 1011.45 1011.42 1011.11 1011.34 1011.20 1010.77 1011.05 1011.23 1011.31 1011.10 1010.60 1010.69 1010.37 1010.37 1010.51 1010.73 1010.54 1011.21 1011.53 1011.63 1011.63 1012.02 1013.13 1014.06 1014.28 1014.51 1015.22 1016.63 1017.97 1018.11 1019.00 1019.59 1020.01 1020.18 1020.39 1020.70 1021.27 1021.88
1010.54 1010.87 1011.05 1011.20 1011.25 1011.49 1011.46 1011.48 1011.05 1010.97 1011.25 1011.17 1010.97 1011.26 1010.98 1010.87 1010.68 1010.60 1010.71 1010.89 1010.98 1011.20 1011.34 1011.57 1011.92 1011.82 1012.41 1013.48 1014.08 1014.81 1015.07 1015.82 1016.94 1017.34 1018.57 1019.36 1020.40 1020.60 1020.62 1020.68 1021.06 1021.82 1022.24
1010.26 1010.68 1010.95 1010.97 1011.18 1011.36 1011.35 1011.48 1011.61 1011.66 1011.55 1011.43 1011.19 1011.12 1011.20 1011.22 1011.10 1011.00 1011.12 1011.18 1011.13 1011.18 1011.37 1011.57 1011.96 1012.44 1013.00 1013.60 1014.29 1014.94 1015.40 1016.54 1017.46 1017.64 1018.78 1019.73 1020.67 1021.24 1021.24 1021.25 1021.57 1022.02 1022.12
Wind_Speed
7 6 15 14 14 13 12 13 13 12 12 11 10 9 9 11 11 11 11 10 9 8 7 7 9 7 7 8 9 9 11 11 10 10 8 9 10 12 13 15 16 15 15
3 8 15 15 14 14 13 13 14 12 13 13 12 11 10 12 13 12 12 11 11 9 9 9 9 8 7 8 8 9 10 11 8 11 10 10 12 12 13 14 10 18 16
2 8 11 14 14 14 13 14 13 13 13 13 13 12 12 12 14 15 13 13 12 11 11 10 9 10 8 8 7 7 8 9 11 12 11 8 12 15 17 10 19 16 16
2 5 7 15 15 15 15 14 12 12 12 13 14 14 13 13 14 16 15 14 12 12 12 11 11 11 9 8 7 6 7 9 9 8 10 9 9 14 13 15 18 18 17
5 5 6 4 13 16 15 13 13 13 14 15 16 16 17 17 16 16 16 15 13 12 12 12 11 11 10 9 8 7 7 10 11 12 9 7 9 14 12 13 17 18 17
5 4 3 2 10 12 13 13 13 14 13 15 17 19 20 20 19 18 17 15 13 12 10 12 13 12 12 10 9 7 5 7 11 11 8 12 10 17 19 15 13 16 17
7 5 7 4 7 10 11 13 13 13 14 15 19 20 21 20 20 19 19 17 15 13 11 12 12 11 12 10 10 7 5 7 12 10 9 11 11 16 16 18 17 16 17
3 3 4 5 1 5 7 9 9 9 11 12 14 16 18 20 20 20 19 19 17 14 13 12 13 12 10 11 9 8 5 10 10 12 8 9 18 23 23 19 17 17 18
2 3 4 5 5 5 1 5 8 9 11 13 15 16 17 16 17 19 17 20 17 16 13 13 15 13 10 9 9 8 8 12 10 9 8 4 22 22 22 20 19 18 18
4 5 6 6 8 6 7 4 9 12 12 13 14 14 14 14 17 17 14 18 17 12 13 13 14 12 8 9 10 10 10 13 10 12 6 8 16 21 22 20 19 19 19
4 5 7 9 6 6 8 7 8 9 11 12 12 11 10 10 9 9 13 15 15 15 14 12 12 11 11 9 11 11 10 7 9 9 9 23 20 21 20 19 17 19 19
5 7 6 6 7 7 7 7 8 7 6 7 8 7 7 8 8 7 7 10 15 14 15 11 11 11 11 8 10 10 9 8 9 7 9 22 22 19 20 19 17 17 19
5 6 7 5 5 7 7 6 5 4 5 5 7 6 5 6 5 6 6 8 10 13 9 12 12 10 12 9 11 10 10 9 7 6 12 21 18 23 20 20 17 18 20
5 6 6 6 5 6 6 7 5 5 5 5 5 5 5 5 4 4 6 8 8 8 10 7 6 6 9 12 11 10 9 8 6 5 11 21 20 23 20 20 24 20 22
5 6 7 6 6 6 7 6 5 5 5 6 4 6 5 5 5 5 5 6 8 9 9 9 7 8 10 12 10 10 10 10 9 5 8 23 21 18 22 23 24 24 22
4 5 6 6 5 6 6 6 6 5 6 4 3 6 6 4 5 4 4 5 7 8 9 7 7 8 9 9 11 9 9 9 9 9 10 13 20 19 14 20 23 23 23
3 3 6 5 5 6 6 6 5 4 5 5 5 5 7 6 5 4 3 5 7 5 7 7 8 7 9 9 10 10 9 9 10 13 11 13 8 20 23 16 20 23 24
2 4 5 5 7 6 7 7 6 5 4 4 6 7 7 7 8 5 6 6 6 7 7 8 10 10 10 8 8 9 7 7 10 11 13 12 10 7 16 22 23 23 23
1 3 6 6 7 7 7 7 6 5 4 3 2 5 7 8 8 7 6 7 9 7 8 7 8 8 9 9 8 7 6 7 9 9 8 11 13 10 7 20 22 22 22
2 1 5 5 6 7 6 4 4 4 3 3 2 3 7 6 7 7 6 7 8 7 7 8 8 9 10 9 7 6 8 8 7 10 11 9 10 8 7 9 12 11 19
3 3 5 5 5 6 7 7 6 6 6 2 0 2 5 8 5 6 6 7 7 7 9 9 8 9 6 7 7 5 6 11 10 10 8 9 8 5 4 11 10 10 13
3 2 5 4 5 5 5 5 6 5 4 2 3 4 5 1 4 6 8 8 8 7 7 9 9 7 6 9 4 4 5 5 7 8 9 9 9 6 6 9 10 10 8
5 4 1 4 5 5 6 5 5 1 2 3 3 5 3 1 4 5 8 9 9 8 8 9 9 10 10 7 10 3 3 2 5 6 9 10 9 7 7 9 12 13 11
6 5 2 2 4 4 6 6 7 4 4 4 3 3 2 6 3 4 7 9 8 7 8 9 7 9 10 10 5 3 9 13 4 5 5 8 8 6 7 7 7 9 8
8 6 3 1 4 4 6 7 7 7 5 4 2 4 5 7 8 6 6 8 8 6 9 11 11 10 11 7 8 9 11 7 2 3 8 8 7 4 4 8 9 8 7
9 7 4 2 4 4 5 7 8 8 8 6 4 3 4 5 5 7 7 5 8 8 10 10 11 14 12 10 11 8 8 5 5 3 9 9 7 4 4 5 7 7 7
Wind_Direction
198 168 174 194 199 206 211 218 224 229 235 238 239 252 276 290 293 291 282 278 273 275 257 263 265 263 271 284 301 274 226 219 206 193 181 157 156 155 152 153 160 127 129
167 185 171 200 205 213 219 225 230 233 238 238 239 244 261 280 285 282 279 273 271 268 260 250 254 259 262 273 297 288 231 209 205 183 172 159 158 153 151 159 182 119 129
148 189 181 204 213 220 227 233 234 237 242 243 245 247 256 267 279 282 277 273 267 264 259 263 254 254 252 262 287 304 245 201 181 188 179 178 162 156 151 158 117 133 131
168 191 222 183 214 222 227 234 244 255 256 252 253 259 262 264 262 269 274 270 262 257 257 256 248 243 248 250 265 295 252 211 179 182 186 179 161 135 148 133 131 136 133
224 212 228 210 218 228 234 245 248 254 260 258 260 264 264 262 258 254 261 264 261 256 256 256 250 238 240 243 250 274 269 213 174 175 160 134 115 128 130 138 140 137 143
247 264 158 219 251 253 254 258 265 269 273 271 271 270 270 268 265 258 248 252 253 257 262 265 261 251 226 235 236 256 270 218 182 182 151 144 132 145 138 148 154 144 130
269 284 265 170 248 253 259 265 274 280 288 285 281 278 277 274 270 255 246 241 241 246 248 264 272 258 245 220 230 237 260 205 203 183 157 142 138 133 135 163 164 144 134
285 262 274 155 244 315 313 321 333 330 310 298 296 292 288 285 268 262 242 236 235 240 248 252 264 265 245 236 224 219 214 201 186 164 155 148 154 156 174 165 154 148 141
168 233 258 289 290 241 331 347 329 318 307 302 296 291 282 281 279 258 237 234 233 233 232 242 256 271 239 230 219 225 193 188 190 162 139 165 161 168 172 160 153 147 145
207 282 278 259 290 297 300 306 328 314 307 302 294 290 293 287 270 258 237 231 227 236 234 233 247 265 234 213 213 220 198 193 194 154 138 130 176 177 161 150 154 149 146
275 277 288 299 310 292 292 300 293 288 303 290 274 271 273 262 272 242 225 226 221 227 233 234 237 256 244 218 206 214 202 199 192 163 149 154 193 169 152 148 161 150 149
296 311 315 319 308 292 280 288 283 296 310 300 286 284 282 280 271 292 274 227 230 233 233 228 235 242 231 212 192 209 216 185 197 173 167 175 163 159 146 152 160 165 153
322 294 332 320 300 289 304 311 297 308 282 280 269 272 281 272 290 259 236 212 217 213 223 216 210 224 221 189 206 196 200 186 199 178 166 168 173 141 158 149 165 180 155
323 318 328 329 298 291 304 297 319 270 306 269 296 288 252 252 255 252 242 233 207 212 218 226 225 233 210 198 220 183 197 191 184 162 164 158 161 153 160 168 179 174 162
314 345 332 325 308 295 289 296 294 291 293 321 280 277 263 276 293 256 249 242 238 192 198 212 220 197 189 190 205 197 194 196 177 167 166 154 143 149 172 177 174 165 149
330 338 334 321 308 288 286 289 296 279 290 285 292 262 259 251 272 263 198 193 205 191 182 198 200 182 177 177 198 193 178 197 175 161 152 149 151 149 170 176 160 151 149
320 334 339 306 298 293 297 291 290 287 278 284 274 251 255 257 244 224 209 209 172 148 166 182 181 174 175 176 201 187 177 192 177 169 156 159 155 166 152 169 164 159 150
298 328 339 314 305 311 304 293 293 310 289 270 268 272 239 243 255 234 203 187 175 173 182 175 176 174 176 174 186 186 178 176 176 169 161 148 159 154 164 173 167 151 151
225 325 328 327 315 329 303 301 303 295 271 262 279 297 276 252 240 234 228 181 178 178 175 179 173 175 152 178 182 183 176 166 152 151 128 144 149 159 165 168 157 151 147
205 263 301 305 317 335 298 280 341 321 335 13 57 327 322 282 249 230 216 182 171 176 168 168 186 179 167 172 180 155 176 152 151 127 132 127 141 143 112 177 160 149 147
207 246 281 320 339 343 334 345 354 5 29 29 324 275 286 268 224 219 186 169 196 179 176 170 172 163 155 177 130 123 140 137 143 129 117 121 127 88 163 199 159 162 155
188 230 268 308 345 342 341 350 343 11 22 16 333 346 331 281 206 181 178 173 181 161 182 175 178 155 149 159 136 104 126 120 124 116 119 112 131 128 150 150 125 93 89
181 195 237 345 345 0 342 37 20 97 106 104 28 36 37 229 225 206 179 171 174 185 176 187 175 168 151 148 147 116 127 152 115 114 109 117 112 123 139 139 125 121 127
167 173 165 16 12 55 15 42 15 42 24 16 26 93 32 90 86 116 173 176 174 201 166 184 170 179 148 135 115 41 126 136 116 126 95 108 104 101 138 117 112 123 148
158 173 165 38 57 56 57 29 1 14 45 343 62 56 69 82 119 134 138 143 165 159 166 170 165 162 137 126 127 123 100 66 43 108 121 110 83 70 56 133 132 155 157
163 165 171 104 80 78 57 46 27 41 31 19 348 80 28 51 81 88 121 124 136 145 154 156 143 140 139 124 113 139 125 120 145 136 127 115 110 47 81 100 127 147 166